[[{"header":{"parameterUnit":"m.s-1","parameterCategory":1,"la1":30.2991,"la2":30.254,"lo1":-89.0895,"lo2":-89.0444,"dy":0.0017,"dx":0.0017,"nx":28,"ny":28,"refTime":"2023-04-01T21:00:00:Z","depth":0,"parameterNumber":2,"parameterNumberName":"U-component_of_WINDS"},"data":[0,0,0,0,0,0,0,0,0,0,0,0,0,0,0,0,0,0,0,0,0,0,0,0,0,0,0,0,0,0,0,0,0,0,0,0,0,0,0,0,0,0,0,0,0,0,0,0,0,0,0,0,0,0,0,0,0,0,0.0068,0.0069,0,0.0112,0.0113,0.0113,0.0131,0.0131,0.0131,0.0131,0.0175,0.0176,0.0178,0,0,0,0,0,0,0,0,0,0,0,0,0,-0.0002,-0.0,0.0068,0.0069,0.0069,0.0112,0.0113,0.0113,0.0131,0.0131,0.0131,0.0131,0.0175,0.0176,0.0178,0,0,0,0,0,0,0,0,0,0,0,0,0,0.0034,0.0,0.0068,0.0083,0.0085,0.0112,0.0113,0.0113,0.0131,0.0131,0.0131,0.013,0.0174,0.0176,0.0178,0.0193,0,0,0.0184,0.0185,0,0,0,0,0,0,0,0,0.0032,0.0037,0.008,0.0082,0.0084,0.0116,0.0105,0.014,0.0131,0.0113,0.0131,0.013,0.0156,0.0159,0.0168,0.0195,0.0197,0.0184,0.0185,0.0186,0.0187,0,0,0,0,0,0,0,0.003,0.0035,0.0086,0.0081,0.0083,0.0088,0.0092,0.0111,0.0135,0.0115,0.0116,0.0121,0.0157,0.0166,0.0169,0.0198,0.0184,0.0186,0.0187,0.0188,0.024,0.024,0,0,0,0,0,0,0.0025,0.0033,0.0084,0.0087,0.0057,0.0089,0.0094,0.0106,0.0135,0.0139,0.0121,0.0122,0.0163,0.0167,0.017,0.019,0.0186,0.0188,0.0189,0.024,0.024,0.024,0,0,0,0,0,0,0.0023,0.0029,0.0082,0.006,0.0067,0.009,0.0103,0.0107,0.0116,0.014,0.0144,0.0127,0.0163,0.0168,0.0187,0.0192,0.0189,0.0191,0.0239,0.024,0.024,0.0229,0,0,0,0,0,0,0.0021,0.0029,0.0035,0.006,0.0068,0.0099,0.0103,0.0108,0.0119,0.012,0.0145,0.0149,0.0163,0.0184,0.0189,0.0194,0.0192,0.0239,0.0239,0.024,0.0229,0.0229,0.0229,0,0,0,0,0,0.0019,0.003,0.0035,0.0041,0.0077,0.0099,0.0104,0.0119,0.012,0.0126,0.0141,0.0149,0.019,0.0186,0.0192,0.0198,0.0239,0.0239,0.024,0.0229,0.0229,0.0229,0,0,0,0,0,0,0.0004,0.0033,0.0039,0.0059,0.0076,0.0102,0.011,0.0118,0.0135,0.0136,0.0154,0.0159,0.0177,0.019,0.0184,0.0214,0.0215,0.0217,0.0205,0.0205,0.0205,0.0202,0.0194,0,0,0,0,0,0.0003,0.0019,0.0044,0.0059,0.0067,0.0087,0.0097,0.0108,0.0126,0.0133,0.015,0.0168,0.0185,0.0196,0.0213,0.0231,0.0237,0.0238,0.0237,0.0237,0.0239,0.0249,0.025,0.0242,0.0242,0.0242,0,0,0.0001,0.0019,0.0028,0.0056,0.0071,0.0087,0.0093,0.011,0.0121,0.0136,0.0156,0.0168,0.0189,0.0208,0.0217,0.0219,0.0242,0.0238,0.0238,0.0239,0.025,0.025,0.0251,0.0242,0.0242,0.0242,0,0,0.0006,0.0021,0.0036,0.005,0.0072,0.0085,0.0089,0.0113,0.0122,0.0142,0.0153,0.0167,0.0196,0.0211,0.0222,0.0232,0.024,0.0237,0.0236,0.0246,0.0247,0.0248,0.0251,0.0253,0.0238,0.0238,0.0238,0,0.0001,0.0026,0.0042,0.0058,0.007,0.0084,0.0098,0.0111,0.0138,0.0145,0.0147,0.0183,0.0198,0.0221,0.0223,0.0232,0.0236,0.0234,0.0246,0.0247,0.0247,0.0251,0.0252,0.0238,0.0238,0.0238,0.0238,0,0.0018,0.0035,0.0044,0.0069,0.0082,0.0097,0.0115,0.0127,0.0136,0.0149,0.0169,0.0187,0.0208,0.0214,0.0223,0.0238,0.0238,0.0242,0.0244,0.0247,0.0251,0.0253,0.0237,0.0237,0.0237,0.0237,0,0,0.0015,0.0049,0.0052,0.0064,0.0089,0.0103,0.0118,0.0139,0.0148,0.0166,0.0179,0.0203,0.0207,0.022,0.023,0.0239,0.0246,0.0242,0.0243,0.0242,0.0264,0.0261,0.0262,0.0251,0.0252,0.0252,0.0262,0,0.0024,0.0053,0.0068,0.009,0.0106,0.0119,0.0133,0.0149,0.0162,0.0177,0.0191,0.0207,0.0211,0.0219,0.0228,0.0243,0.0251,0.0243,0.0264,0.0265,0.0259,0.0264,0.0261,0.027,0.0264,0.0264,0.0264,0,0.0037,0.0055,0.0079,0.0103,0.011,0.0122,0.0142,0.0156,0.0175,0.0184,0.0198,0.0208,0.0225,0.0225,0.0249,0.0243,0.0252,0.0261,0.0262,0.0264,0.0265,0.0267,0.0273,0.0274,0.0267,0.0266,0.0266,0,0.0033,0.0063,0.0081,0.0091,0.0118,0.0127,0.0138,0.0158,0.0169,0.0186,0.0194,0.0213,0.0224,0.0238,0.0253,0.0252,0.0275,0.0277,0.0283,0.0282,0.0287,0.0287,0.0294,0.0293,0.0293,0.0293,0.0293,0,0.0041,0.0055,0.008,0.0091,0.0107,0.0124,0.0139,0.0152,0.0169,0.0183,0.0195,0.0208,0.0227,0.0242,0.0254,0.0272,0.0276,0.0284,0.0287,0.0283,0.0282,0.0289,0.0289,0.0293,0.0293,0.0293,0.0293,0,0.0039,0.0056,0.0077,0.0101,0.0108,0.0119,0.014,0.0151,0.0164,0.0181,0.0186,0.0207,0.0225,0.0242,0.0266,0.0274,0.0292,0.0295,0.0285,0.0287,0.0292,0.0291,0.0305,0.0308,0.0304,0.0304,0.0304,0,0.0043,0.0054,0.008,0.009,0.0102,0.0118,0.013,0.0147,0.0159,0.0182,0.019,0.0209,0.0226,0.0254,0.0271,0.029,0.0294,0.0298,0.0297,0.0293,0.0295,0.0294,0.0295,0.0298,0.0298,0.0298,0.0298,0,0.0048,0.0056,0.0073,0.0093,0.0106,0.0123,0.0139,0.0147,0.0167,0.0179,0.0198,0.0211,0.0236,0.0255,0.0275,0.0287,0.0296,0.0298,0.03,0.0296,0.029,0.0293,0.0285,0.0297,0.0297,0.0297,0.0297,0.0297,0.005,0.006,0.008,0.0098,0.0113,0.0128,0.014,0.0154,0.0171,0.0192,0.0201,0.022,0.0239,0.0268,0.028,0.0295,0.0296,0.03,0.0301,0.0301,0.0301,0.0287,0.0299,0.0299,0.0299,0.0299,0.0299,0,0.0056,0.0069,0.0086,0.0109,0.0123,0.013,0.0149,0.016,0.0177,0.0194,0.021,0.0231,0.025,0.0268,0.0287,0.0296,0.03,0.0301,0.03,0.0303,0.0298,0.0294,0.0297,0.0297,0.0297,0.0297,0.0297,0.0297,0.0061,0.0079,0.0089,0.0115,0.0128,0.0147,0.0158,0.0172,0.0185,0.0209,0.0224,0.0236,0.0254,0.0275,0.0292,0.0297,0.0303,0.0302,0.0308,0.0303,0.0303,0.0303,0.03,0.0303,0.0303,0.0312,0.0312,0.0312]},{"header":{"parameterUnit":"m.s-1","parameterCategory":1,"la1":30.2991,"la2":30.254,"lo1":-89.0895,"lo2":-89.0444,"dy":0.0017,"dx":0.0017,"nx":28,"ny":28,"refTime":"2023-04-01T21:00:00:Z","depth":0,"parameterNumber":3,"parameterNumberName":"V-component_of_WINDS"},"data":[0,0,0,0,0,0,0,0,0,0,0,0,0,0,0,0,0,0,0,0,0,0,0,0,0,0,0,0,0,0,0,0,0,0,0,0,0,0,0,0,0,0,0,0,0,0,0,0,0,0,0,0,0,0,0,0,0,0,4.3402,4.3404,0,4.3507,4.3508,4.351,4.35,4.3498,4.3497,4.3495,4.3597,4.3602,4.3606,0,0,0,0,0,0,0,0,0,0,0,0,0,4.3189,4.3193,4.3402,4.3404,4.3405,4.3507,4.3508,4.351,4.35,4.3498,4.3496,4.3495,4.3596,4.3601,4.3606,0,0,0,0,0,0,0,0,0,0,0,0,0,4.3287,4.3195,4.3402,4.3413,4.3415,4.3507,4.3509,4.351,4.3501,4.3498,4.3496,4.3494,4.3594,4.3601,4.3607,4.3694,0,0,4.3626,4.3629,0,0,0,0,0,0,0,0,4.3281,4.3295,4.341,4.3412,4.3414,4.3488,4.3471,4.3572,4.3501,4.3468,4.3495,4.3493,4.3563,4.3571,4.3596,4.3698,4.3703,4.3627,4.363,4.3633,4.3635,0,0,0,0,0,0,0,4.3275,4.329,4.3444,4.3411,4.3414,4.3411,4.3422,4.349,4.3527,4.3471,4.347,4.3483,4.3563,4.359,4.3599,4.3704,4.3626,4.3632,4.3636,4.3638,4.3884,4.3887,0,0,0,0,0,0,4.3266,4.3284,4.344,4.3447,4.3341,4.3416,4.3429,4.3467,4.3527,4.3533,4.3485,4.3482,4.3581,4.3591,4.3602,4.3709,4.3633,4.3639,4.3643,4.3882,4.3885,4.3888,0,0,0,0,0,0,4.3261,4.328,4.3436,4.3366,4.3385,4.3423,4.3465,4.347,4.3497,4.3538,4.3544,4.3506,4.3579,4.3593,4.3672,4.3712,4.3642,4.3648,4.3878,4.3883,4.3886,4.3923,0,0,0,0,0,0,4.3255,4.3278,4.3313,4.3367,4.3389,4.3505,4.3468,4.3474,4.3509,4.3506,4.3559,4.3565,4.3578,4.3662,4.3678,4.372,4.3653,4.3875,4.388,4.3885,4.3918,4.3928,4.3936,0,0,0,0,0,4.3248,4.3317,4.3315,4.3333,4.3433,4.3508,4.352,4.3536,4.3512,4.3546,4.3572,4.3563,4.3705,4.367,4.3688,4.3732,4.3872,4.3879,4.3885,4.3914,4.3926,4.3936,0,0,0,0,0,0,4.3265,4.3324,4.3322,4.3411,4.3455,4.3506,4.355,4.3547,4.3597,4.3593,4.3608,4.362,4.3699,4.3723,4.3683,4.382,4.3785,4.3795,4.3802,4.3813,4.3822,4.3815,4.3658,0,0,0,0,0,4.328,4.3337,4.3385,4.3459,4.3481,4.3512,4.3545,4.3553,4.3598,4.3616,4.3648,4.369,4.3745,4.378,4.3832,4.3921,4.3933,4.396,4.3969,4.3976,4.3985,4.4035,4.4048,4.3908,4.3908,4.3908,0,0,4.3309,4.3349,4.3384,4.3463,4.3498,4.3556,4.3527,4.3589,4.3632,4.3625,4.3702,4.3727,4.3775,4.386,4.3899,4.3882,4.4026,4.3984,4.399,4.3994,4.4043,4.4056,4.4068,4.3912,4.3912,4.3911,0,0,4.3394,4.3429,4.3496,4.3532,4.3586,4.3606,4.3622,4.3674,4.3691,4.3769,4.3765,4.3815,4.3908,4.3944,4.3974,4.4073,4.4067,4.409,4.4136,4.4185,4.4196,4.4206,4.4242,4.4255,4.4098,4.4098,4.4098,0,4.3424,4.3513,4.353,4.3594,4.3629,4.3627,4.3694,4.3727,4.3795,4.3819,4.38,4.3918,4.395,4.4044,4.4068,4.4092,4.4111,4.4084,4.4193,4.4203,4.4213,4.4248,4.4261,4.41,4.41,4.41,4.41,0,4.3547,4.3609,4.3656,4.3724,4.3764,4.3829,4.3855,4.3894,4.3899,4.3921,4.4,4.4039,4.41,4.4122,4.4127,4.4217,4.4206,4.419,4.4155,4.4228,4.4261,4.4275,4.4104,4.4103,4.4102,4.4102,0,0,4.3645,4.3723,4.374,4.3772,4.3832,4.3879,4.3943,4.4005,4.4038,4.4084,4.4139,4.4219,4.4205,4.4239,4.4248,4.429,4.4368,4.4269,4.4271,4.4288,4.4472,4.4484,4.4499,4.4364,4.4367,4.4369,4.4468,0,4.3737,4.3854,4.3872,4.3974,4.4032,4.4031,4.4088,4.413,4.4152,4.4203,4.4226,4.4284,4.426,4.4281,4.4324,4.435,4.4406,4.4343,4.4415,4.4418,4.4404,4.4517,4.453,4.4621,4.4481,4.4483,4.4485,0,4.3859,4.3912,4.4021,4.4075,4.4099,4.415,4.4209,4.4257,4.4305,4.4318,4.4358,4.4361,4.4428,4.439,4.4482,4.4439,4.4469,4.4487,4.449,4.4498,4.4456,4.4528,4.465,4.4664,4.4505,4.4503,4.4502,0,4.3921,4.4019,4.4097,4.4124,4.4188,4.4224,4.4252,4.4298,4.4334,4.4384,4.4408,4.4465,4.4496,4.4539,4.4558,4.4529,4.4649,4.4613,4.4662,4.4661,4.4687,4.4686,4.4817,4.4705,4.4705,4.4705,4.4705,0,4.4022,4.4089,4.4126,4.4175,4.425,4.4269,4.4342,4.4369,4.441,4.4462,4.4464,4.4513,4.4535,4.4587,4.4602,4.4676,4.4689,4.4702,4.4705,4.4702,4.4701,4.4723,4.4717,4.4709,4.4708,4.4707,4.4706,0,4.4104,4.4132,4.4217,4.4272,4.4287,4.434,4.4387,4.4433,4.4455,4.4522,4.4539,4.4573,4.4635,4.4658,4.4732,4.4742,4.4829,4.4826,4.4814,4.4815,4.4863,4.4859,4.5014,4.5035,4.4908,4.491,4.4911,0,4.4167,4.4219,4.428,4.4317,4.4347,4.4405,4.4443,4.4464,4.4503,4.4563,4.4602,4.4664,4.4715,4.4813,4.4844,4.4901,4.4901,4.4951,4.4909,4.4906,4.4903,4.49,4.4906,4.4959,4.496,4.4962,4.4962,0,4.4276,4.4288,4.4343,4.4405,4.4451,4.4499,4.4546,4.4575,4.4603,4.4647,4.4712,4.4751,4.4829,4.489,4.495,4.4977,4.4975,4.4975,4.499,4.4988,4.498,4.4986,4.4836,4.4972,4.4971,4.497,4.497,4.4969,4.4351,4.4398,4.4449,4.4512,4.455,4.4594,4.4641,4.4671,4.4725,4.4792,4.48,4.487,4.4917,4.4996,4.5026,4.508,4.5067,4.5087,4.5093,4.5098,4.5102,4.497,4.5091,4.509,4.509,4.509,4.509,0,4.4461,4.4495,4.4552,4.462,4.4669,4.4664,4.4716,4.4757,4.4819,4.4864,4.4915,4.499,4.505,4.5086,4.5147,4.5183,4.5183,4.5198,4.5196,4.5203,4.511,4.5092,4.5197,4.5197,4.5197,4.5197,4.5197,4.5197,4.4525,4.4605,4.4623,4.4721,4.4754,4.4824,4.4854,4.4895,4.4931,4.5016,4.5067,4.5091,4.5132,4.5196,4.5251,4.526,4.5282,4.5299,4.5307,4.522,4.5209,4.5198,4.5182,4.5303,4.5303,4.5395,4.5395,4.5396]}]]